{"data":{"norad_id":54789,"intl_designator":"2022-175AH","name":"STARLINK-5446","alt_names":[],"object_type":"PAYLOAD","status":"ACTIVE","operator":null,"country":"US","launch_date":"2022-12-17","launch_site_code":"AFETR","launch_vehicle":null,"mission":null,"orbit_class":"UNKNOWN","rcs_meters":null,"size_class":null,"mass_kg":null,"dimensions":null,"purposes":["comms"],"wikipedia_slug":null,"has_3d_model":false,"image_url":null,"decayed_at":null,"tle_current":{"epoch":"2026-05-24T22:42:49.480992Z","epoch_age_seconds":79408,"freshness":"FRESH","line1":"1 54789U 22175AH  26144.94640603 -.00001680  00000+0 -87535-4 0  9997","line2":"2 54789  53.2154  31.5572 0001324  87.0404 273.0740 15.08828058191853","mean_motion":15.08828058,"eccentricity":0.0001324,"inclination_deg":53.2154,"raan_deg":31.5572,"arg_perigee_deg":87.0404,"mean_anomaly_deg":273.074,"bstar":-8.7535e-5,"rev_number":19185,"period_min":95.438310042349,"perigee_km":538.863958925,"apogee_km":540.69582331777,"semimajor_km":6917.9168911214,"source":"CELESTRAK","updated_at":"2026-05-25T13:38:17.694254Z"}}}